Wind_Speed
15 15 15 15 15 15 16 15 15 15 15 16 15 16 16 16 16 16 17 17 17 17 18 18 19 19 19 20 20 20 20 20 21 21 20 18 22 28 31 32 32 30 27 23 21 18 16 14 12 11 11 15 21 20 17 16 13 12 11 14 18 18 17 15 16 17 15 19 19 15 12 6 3 7 6 5 7 9 12 13 11 12 13 14 15 16 18 18
15 16 16 16 16 16 16 16 16 16 16 16 16 16 15 16 16 16 16 16 17 17 17 18 19 19 19 19 19 20 20 20 21 20 17 17 22 26 28 31 34 31 28 25 22 20 18 16 14 12 12 15 21 21 16 15 15 13 12 14 17 17 15 13 17 17 16 17 16 14 12 6 2 3 5 5 8 9 8 10 13 14 16 16 15 15 17 17
15 16 16 16 16 16 16 16 16 17 17 16 16 16 16 15 15 15 16 16 16 16 16 18 19 19 19 19 19 19 19 20 19 17 15 17 20 22 25 30 33 32 28 26 23 22 21 18 16 14 13 14 18 20 18 17 16 14 14 14 15 17 14 14 18 17 15 14 15 15 13 7 3 3 5 6 7 7 6 6 10 14 15 15 15 14 15 17
16 16 16 16 16 16 16 17 17 17 17 17 17 17 16 15 15 15 15 15 15 15 15 17 18 18 18 18 18 18 18 18 17 15 13 16 19 21 24 28 33 33 30 28 26 24 23 20 17 16 15 14 16 18 20 18 15 13 16 16 14 16 16 17 17 16 15 12 12 15 14 9 6 6 6 5 4 6 6 7 6 10 12 12 13 12 13 16
16 16 16 16 17 17 17 17 17 17 17 17 17 17 17 16 15 14 15 15 15 15 15 16 17 18 18 18 17 16 17 15 13 12 12 16 20 21 23 27 32 33 32 30 28 26 24 21 19 17 16 15 16 18 19 16 12 13 17 18 14 16 19 19 17 15 16 12 11 16 14 11 10 7 6 3 4 5 8 6 6 7 8 8 8 9 10 12
17 17 17 17 17 17 17 17 17 18 18 18 18 17 17 17 16 15 15 15 15 15 15 15 16 17 17 17 16 15 15 11 8 9 11 17 21 21 23 28 32 34 34 31 30 28 25 23 21 19 17 16 17 19 18 14 12 15 17 19 17 18 22 20 19 17 17 14 13 16 14 11 11 7 6 4 2 3 6 3 3 5 7 7 6 6 6 7
17 17 17 17 18 17 17 17 18 18 18 18 18 18 18 18 17 16 15 15 15 15 15 15 16 16 16 17 16 15 15 11 10 10 11 18 22 23 24 29 33 36 36 33 31 28 26 25 22 20 18 16 17 21 19 13 13 17 16 17 19 23 24 23 22 19 18 14 15 16 14 13 11 7 8 7 4 2 3 5 4 4 6 8 8 8 6 6
17 18 18 18 18 18 18 18 18 18 19 19 18 18 18 18 18 17 16 16 16 15 15 15 16 15 15 16 16 16 14 11 12 11 11 18 23 24 26 29 34 37 36 34 32 29 27 26 23 20 18 16 17 20 18 13 13 16 15 18 24 28 26 26 24 21 19 16 17 16 14 13 10 8 9 9 8 6 4 6 7 5 5 7 9 9 8 9
17 18 18 18 18 19 19 19 19 19 19 19 19 18 18 19 18 18 17 16 17 16 15 16 16 15 15 15 16 15 12 11 12 12 12 17 23 26 27 30 35 38 37 35 32 30 29 26 23 21 18 17 17 18 14 12 11 14 18 24 28 29 28 28 25 23 21 17 17 15 14 16 14 13 10 10 11 8 7 7 7 5 4 7 9 10 9 11
17 18 18 18 18 19 19 19 19 20 20 20 20 19 19 19 18 18 18 17 17 17 16 16 16 16 15 15 16 13 11 11 12 13 15 19 25 27 28 30 34 38 37 35 34 32 30 27 23 21 19 17 16 17 12 11 9 15 22 27 29 28 28 28 25 24 20 15 15 15 15 16 17 17 13 13 13 10 10 8 7 5 5 8 10 10 11 11
18 18 18 18 18 19 19 19 20 20 20 21 21 20 19 20 19 18 18 19 18 17 17 16 16 16 15 16 16 11 11 13 13 15 17 20 26 28 29 31 34 37 37 36 34 33 31 27 23 22 20 18 16 15 8 8 11 23 27 30 30 28 29 28 25 24 19 15 15 14 13 15 17 17 15 13 13 12 12 10 7 6 6 10 11 12 12 11
19 18 18 18 19 19 19 20 20 20 20 21 21 21 20 21 20 19 19 19 19 18 18 17 17 16 16 16 13 11 14 15 15 17 18 21 27 31 31 33 35 37 38 37 35 34 31 26 24 23 19 18 17 13 3 4 11 28 31 33 32 30 31 28 23 22 16 12 16 14 12 15 16 15 14 14 14 13 13 12 9 8 7 11 12 13 13 13
19 19 19 19 19 19 19 20 20 20 20 20 20 21 21 21 21 20 19 20 19 19 19 18 18 16 17 13 8 12 18 17 14 15 17 20 26 31 32 33 36 39 40 40 37 34 32 28 26 24 19 19 15 9 4 4 12 32 35 35 35 32 32 29 24 22 14 8 12 14 12 13 13 13 13 13 14 15 15 14 13 10 8 12 13 13 14 13
20 19 19 19 19 19 20 20 20 20 20 20 20 20 21 21 22 21 20 19 19 20 20 20 18 17 18 10 7 14 17 15 13 11 15 19 24 29 32 33 36 40 42 41 38 35 32 30 28 25 22 22 14 7 8 6 14 37 36 33 37 35 34 31 26 22 16 10 12 13 7 7 9 11 12 12 13 14 15 14 14 11 9 13 15 14 14 13
20 20 20 20 20 19 20 20 20 20 20 20 20 20 22 22 22 21 21 20 19 21 22 21 20 19 18 9 10 17 15 12 11 11 14 18 22 27 31 33 35 39 43 41 38 35 33 31 30 27 24 24 17 11 10 5 15 38 36 33 37 35 33 31 27 22 15 12 15 12 5 4 6 9 10 11 13 13 13 13 13 12 11 14 16 15 14 13
20 20 20 20 20 20 20 20 20 20 19 20 20 20 22 22 23 22 22 21 21 23 22 22 20 19 18 9 9 15 13 9 10 12 16 18 21 26 30 34 36 39 42 40 37 35 34 32 31 29 25 24 19 14 12 3 17 38 36 36 37 34 33 31 26 22 18 14 15 14 8 5 6 9 11 11 12 12 13 13 12 12 13 15 16 15 15 14
20 21 21 20 21 21 21 21 21 20 19 20 20 20 22 23 24 24 23 22 23 24 24 23 22 21 18 10 9 12 11 9 10 14 17 19 22 25 30 35 37 39 40 38 36 34 34 34 32 31 27 26 23 18 14 7 20 36 32 34 36 30 31 30 26 24 24 20 15 16 13 8 5 9 12 10 10 12 12 13 13 12 14 15 15 15 15 15
20 20 20 20 21 21 22 22 22 21 19 20 20 20 22 24 26 26 24 24 25 26 25 23 22 21 15 9 12 14 14 14 15 18 17 19 23 26 31 35 37 40 38 35 35 33 33 34 33 31 29 29 26 22 18 12 22 33 30 32 34 31 29 28 28 28 27 23 17 16 15 12 8 9 12 11 11 11 11 11 11 12 15 16 16 15 14 15
20 20 20 20 20 21 22 22 22 21 20 19 20 21 22 24 27 27 27 26 25 26 25 23 22 20 14 9 14 17 19 19 19 21 19 18 22 25 31 35 37 39 37 35 36 34 34 35 35 35 32 32 30 26 22 15 18 27 30 31 31 32 32 29 28 27 26 25 22 18 15 14 13 12 13 12 12 10 10 11 12 13 16 16 15 14 14 13
21 21 20 19 20 20 22 22 21 21 20 19 19 20 22 24 27 29 29 27 26 26 27 26 26 26 21 13 14 17 20 22 23 24 22 20 20 23 30 36 38 38 37 35 35 35 34 35 38 41 36 33 31 26 22 16 16 20 23 28 30 32 33 31 29 26 25 26 24 19 16 15 15 15 12 11 13 12 12 13 13 15 16 16 15 14 14 12
22 21 20 19 19 20 21 21 21 20 20 20 20 20 22 26 28 30 30 26 21 22 26 26 28 30 25 16 16 17 17 22 27 27 24 22 22 24 30 38 39 38 38 36 34 34 35 37 41 44 39 33 30 26 24 21 18 18 16 17 27 34 34 32 31 28 25 25 24 21 19 17 17 17 14 13 13 12 12 12 12 14 16 15 15 15 14 12
22 22 21 19 19 20 21 21 20 19 19 20 20 19 22 26 28 29 32 29 20 17 22 23 26 29 25 18 19 22 21 23 27 27 25 25 26 27 31 38 40 39 38 35 34 34 37 41 43 43 40 33 29 28 27 25 22 20 16 13 16 29 33 30 30 29 27 27 26 23 22 20 19 19 17 16 13 8 8 10 10 12 15 16 16 16 15 15
23 22 21 20 19 20 21 21 19 19 19 19 20 19 21 24 25 27 29 32 27 19 17 18 21 26 27 19 21 27 27 26 26 26 27 27 28 29 31 37 39 38 36 36 38 37 38 43 44 41 40 35 31 31 30 28 25 21 19 15 13 19 27 29 31 31 30 30 27 25 25 23 21 22 22 18 13 8 8 10 10 11 12 12 14 14 14 14
24 23 22 20 19 19 21 21 19 18 18 19 19 18 20 22 22 24 26 31 32 24 18 17 19 25 26 19 21 29 30 27 26 27 29 29 29 30 32 34 36 37 37 37 40 40 39 42 42 40 38 36 34 34 32 30 27 22 20 19 14 13 19 26 31 33 34 33 29 26 25 26 26 25 25 22 16 14 13 14 15 14 12 10 11 13 13 12
25 23 22 21 20 19 20 20 20 19 18 19 19 18 19 20 20 22 24 28 32 28 22 18 17 20 22 20 23 28 30 30 27 26 27 29 30 30 32 33 34 37 37 36 37 39 40 40 41 39 37 38 37 36 36 31 28 25 22 20 16 13 14 17 25 32 34 32 32 28 19 20 30 30 26 23 21 20 18 19 20 18 17 16 14 15 14 13
25 24 23 22 20 19 19 19 20 20 19 18 18 17 17 19 18 19 22 25 30 28 20 14 11 12 16 19 24 28 31 32 29 25 23 27 30 31 32 33 34 35 35 34 32 37 41 39 40 39 37 38 38 38 38 33 29 28 24 20 16 14 14 17 22 32 34 33 35 35 23 15 26 33 29 25 24 23 21 22 23 21 20 21 20 18 16 16
25 24 23 22 21 19 17 18 19 20 19 17 18 17 16 16 14 15 18 16 18 19 15 12 11 10 11 12 22 32 30 28 27 27 25 25 29 32 33 33 33 33 33 31 30 36 41 40 40 40 38 38 39 41 40 35 30 28 25 20 16 15 13 19 25 29 34 36 32 36 32 17 21 33 31 28 26 24 25 26 25 24 23 23 23 21 19 18
25 24 23 21 21 20 17 17 18 18 17 17 18 16 15 13 9 10 9 4 9 16 16 13 11 11 11 10 20 34 30 23 25 27 26 25 27 32 34 34 32 31 32 31 33 36 38 42 43 43 42 39 40 44 41 36 32 29 25 19 17 15 15 21 26 28 33 34 27 34 36 17 17 31 29 29 32 28 30 30 26 26 25 24 24 23 22 20
24 24 23 21 21 20 17 18 19 17 16 17 17 15 14 11 8 8 3 1 12 16 13 11 10 10 10 9 17 31 32 23 20 22 25 25 26 30 33 33 31 29 29 32 35 33 33 39 42 43 44 44 44 45 42 38 34 29 24 19 18 17 20 22 25 31 33 27 25 37 40 19 13 29 31 31 36 33 30 28 25 25 26 25 24 23 23 22
24 24 24 21 21 20 18 19 21 19 16 17 17 15 13 12 11 8 4 5 14 15 13 13 11 10 8 10 17 28 33 25 15 15 23 27 25 26 29 30 28 26 26 28 32 33 31 33 37 40 44 47 47 44 42 39 34 30 24 22 22 23 25 23 24 32 24 15 25 40 46 32 14 23 36 36 34 28 23 22 24 26 27 26 26 24 25 25
23 24 23 22 21 20 19 18 21 21 17 16 16 15 13 14 14 9 4 10 16 15 11 8 5 4 6 9 19 27 31 27 17 13 21 28 28 27 29 30 31 27 26 29 30 31 31 31 34 38 40 44 45 45 44 39 35 34 29 27 24 20 21 17 16 23 11 7 28 41 45 39 19 22 36 37 33 26 20 21 23 26 24 21 21 22 24 27
23 23 22 22 21 20 19 18 19 21 19 16 15 15 15 14 16 16 12 12 10 7 3 4 1 1 6 7 17 24 30 27 20 18 22 27 31 34 33 33 35 30 27 31 30 29 33 35 35 34 36 40 41 42 43 41 38 36 32 30 21 8 7 7 6 10 7 12 29 37 39 33 27 36 39 33 32 27 23 22 21 24 24 19 17 18 22 26
23 23 21 22 22 20 20 19 18 19 20 17 15 16 17 12 13 22 24 18 8 4 4 3 2 3 4 9 10 14 26 29 22 21 24 26 30 35 35 33 35 33 28 28 29 28 29 32 37 35 35 39 40 40 41 41 41 38 34 31 20 6 3 4 3 1 5 16 24 30 31 21 24 41 41 34 32 27 25 23 19 22 23 19 16 16 19 23
23 23 21 21 22 21 22 21 18 19 21 20 18 18 20 16 14 23 26 25 21 18 17 16 15 11 7 8 9 10 17 28 27 24 25 28 31 36 39 36 35 36 31 26 27 29 23 24 38 42 38 39 39 41 42 40 40 41 36 33 28 20 10 5 5 4 8 17 19 20 19 15 22 35 37 34 30 27 27 25 22 24 23 20 18 18 19 21
22 23 21 20 21 23 24 23 19 20 22 22 21 21 25 24 22 24 26 27 28 26 25 27 28 26 18 13 11 11 10 20 29 29 26 30 34 36 39 39 37 36 34 27 24 27 25 26 36 41 40 41 38 39 42 38 37 39 36 33 34 33 24 14 11 13 16 12 10 14 14 18 31 36 33 28 26 27 30 30 27 24 23 23 23 22 20 19
22 21 20 20 22 23 25 25 21 21 23 24 24 27 31 30 25 23 21 20 19 17 19 20 19 20 18 15 14 10 8 10 22 29 28 28 33 35 35 37 37 37 38 33 25 23 23 26 32 35 38 43 39 36 39 38 35 34 33 34 34 31 29 23 13 12 14 6 5 14 15 18 26 28 28 27 23 23 27 31 30 22 20 26 26 23 21 19
21 20 20 21 23 24 24 24 22 22 23 26 30 31 32 31 28 26 21 15 11 8 10 14 11 10 12 13 15 12 8 9 12 24 29 27 29 34 35 35 35 38 40 37 30 24 21 20 26 33 36 41 43 39 39 40 37 35 33 33 30 24 26 25 12 4 6 2 5 16 19 19 19 17 22 26 19 15 18 23 25 22 22 26 26 24 21 19
20 19 19 20 22 24 24 22 22 22 24 28 33 32 32 31 29 30 29 24 19 16 16 17 17 17 17 17 19 17 13 12 11 17 27 30 29 32 35 35 35 37 39 39 35 30 24 18 21 30 33 36 40 39 40 41 39 39 37 33 27 20 19 21 13 3 3 2 3 11 17 19 21 19 18 17 13 14 15 16 19 22 24 26 27 24 20 19
20 19 19 19 20 23 22 20 20 23 25 30 33 32 32 31 29 31 33 30 27 26 25 25 23 23 22 22 24 22 20 18 15 16 21 26 31 34 34 34 35 35 37 41 40 36 31 22 18 25 30 31 33 36 41 43 39 38 38 37 36 28 22 23 20 11 6 4 2 6 8 12 20 22 16 13 13 14 16 18 20 23 24 26 26 22 20 20
20 19 19 18 18 20 20 19 21 23 26 31 33 31 30 29 28 31 31 28 26 25 26 26 24 24 25 25 25 24 23 23 20 19 20 21 26 33 35 34 34 34 34 39 41 40 37 30 24 24 25 27 32 36 40 43 40 37 37 38 39 35 25 22 23 21 13 6 4 4 4 9 16 17 14 14 16 16 16 18 22 26 25 24 23 21 21 20
19 19 19 17 17 19 20 22 23 23 26 29 29 29 29 28 29 30 27 24 23 22 22 24 24 24 26 25 24 23 22 24 22 22 24 23 23 28 34 35 35 34 33 39 43 42 39 35 33 32 27 27 32 34 36 40 40 39 39 39 40 37 27 16 13 19 19 11 7 6 5 12 18 17 15 16 19 19 17 17 24 27 23 21 21 21 20 18
18 18 18 17 17 18 20 23 24 24 24 25 25 25 26 26 27 28 26 23 22 21 21 23 24 24 25 25 25 22 20 22 23 24 25 24 24 26 30 34 36 35 35 39 41 41 40 37 34 37 36 32 30 27 26 29 35 38 40 40 39 38 34 21 11 14 18 15 11 9 6 12 19 19 17 17 17 17 16 19 25 25 21 19 19 20 19 16
18 16 16 17 18 18 19 21 24 25 24 23 22 23 22 23 24 25 23 20 20 21 22 24 25 24 24 23 21 19 18 20 23 24 24 23 24 24 23 31 37 38 38 39 39 39 40 36 34 36 38 37 35 31 26 24 27 33 38 41 42 39 39 33 23 20 20 19 16 9 4 10 18 19 18 15 14 14 15 20 25 24 21 20 19 20 18 16
18 16 15 18 20 20 20 20 21 23 23 21 21 21 20 20 21 20 17 13 13 15 17 21 22 21 23 21 18 17 17 18 22 24 22 23 25 23 20 26 38 41 41 41 41 40 37 35 34 27 22 25 28 29 30 30 29 31 35 41 44 43 42 40 33 24 19 22 24 14 5 12 19 22 23 22 19 16 17 21 25 25 23 21 20 20 18 18
17 17 16 18 21 22 21 21 22 23 23 23 23 23 21 21 20 18 15 15 14 14 16 19 18 19 23 21 18 19 20 19 23 24 22 23 27 25 18 18 33 44 42 39 40 41 39 40 40 27 14 12 14 18 27 33 33 31 32 37 42 43 43 42 34 23 17 19 25 20 12 15 20 22 26 27 23 19 19 23 27 27 26 23 21 21 20 20
17 17 16 16 21 24 24 24 25 24 24 26 26 24 22 22 22 20 18 17 16 16 17 19 17 18 23 21 19 20 23 22 21 21 21 22 25 21 13 12 23 41 44 39 40 43 42 42 44 42 35 32 30 29 31 30 27 27 29 34 40 40 42 43 35 29 25 22 23 24 21 20 19 19 22 23 20 19 22 26 29 30 30 27 24 22 20 20
17 19 17 14 16 22 26 27 26 24 24 25 26 24 23 22 22 21 20 17 14 15 18 19 18 19 22 21 18 16 20 24 24 18 19 20 22 19 12 11 12 30 42 42 39 39 40 40 42 47 50 49 47 42 36 29 24 24 25 32 38 37 39 44 39 35 34 26 21 25 25 23 23 21 20 20 19 20 23 27 29 32 33 31 27 24 21 22
18 19 18 15 14 18 23 27 28 26 23 23 24 24 23 22 22 22 20 17 14 14 15 16 17 18 20 19 17 14 18 25 28 20 16 17 22 21 16 10 3 10 23 35 39 35 33 36 40 44 48 52 52 47 42 37 31 26 24 27 36 39 39 44 43 40 39 33 29 30 27 25 26 24 21 18 17 19 22 25 28 32 34 32 29 26 23 24
20 19 18 18 18 17 19 23 27 28 25 22 23 23 23 23 23 20 18 17 16 13 10 11 13 13 13 15 17 16 18 23 28 23 17 17 19 19 19 16 5 4 0 12 31 38 33 32 35 38 42 48 51 50 48 44 39 36 32 29 34 39 40 42 43 43 41 38 36 35 31 29 27 24 23 21 20 20 22 26 31 34 35 33 31 28 26 27
21 20 19 19 19 18 19 21 24 26 26 24 22 22 24 24 22 18 17 17 15 12 9 8 8 9 10 14 16 20 22 25 33 29 22 23 20 15 16 17 12 7 5 7 9 27 37 39 37 35 36 40 45 48 47 46 43 42 40 36 35 38 40 40 42 44 42 38 35 34 34 33 30 26 25 25 25 25 26 31 36 37 36 34 32 31 29 28
21 21 20 21 19 17 18 20 22 23 23 23 23 24 25 23 18 17 18 13 8 8 9 8 7 8 12 15 15 18 20 25 37 37 27 26 23 18 16 13 11 11 10 13 11 8 24 36 39 36 33 36 42 41 41 45 44 42 43 41 38 38 40 39 38 39 39 38 37 36 35 34 31 29 28 27 27 27 28 32 36 38 37 35 34 32 30 27
21 21 21 22 20 18 17 18 20 20 20 20 22 25 25 23 19 16 15 12 8 6 6 6 8 9 15 18 17 17 17 19 31 36 28 23 23 23 22 17 14 15 15 17 17 11 9 20 31 33 31 34 40 38 38 39 31 29 39 41 37 38 38 35 34 35 35 36 35 36 36 35 33 33 32 31 29 28 29 33 37 40 39 35 32 31 29 25
Wind_Direction
302 305 306 307 307 307 307 306 303 301 302 307 311 307 296 288 284 283 281 281 282 281 281 279 275 272 270 269 267 265 264 261 258 250 241 230 223 221 217 217 218 217 217 215 216 215 216 223 223 223 211 192 189 187 185 182 184 192 188 179 181 185 184 186 183 182 180 166 168 173 173 202 162 151 164 138 138 141 131 135 136 137 145 157 157 147 148 151
300 302 305 306 305 306 306 307 307 304 303 306 310 311 303 292 287 285 284 283 283 283 284 282 279 276 272 271 268 266 265 262 260 253 243 230 224 221 215 212 212 211 208 209 212 211 216 222 222 222 208 196 193 195 198 192 193 204 204 196 193 197 198 190 183 186 189 175 174 181 183 212 262 169 175 179 165 145 128 139 144 142 151 165 163 152 150 152
299 300 303 305 305 304 304 306 308 307 306 305 308 311 308 299 290 287 287 286 284 284 285 284 283 279 276 273 269 268 265 264 262 257 245 226 220 218 213 210 208 206 203 206 210 208 213 219 220 220 214 208 201 203 210 205 203 212 220 220 207 204 200 185 185 190 187 177 175 181 188 208 236 189 185 197 173 135 91 108 150 154 154 164 165 155 151 152
299 299 300 303 306 305 304 304 305 308 308 307 307 309 310 304 295 290 287 288 288 286 287 286 285 283 279 274 270 268 266 267 264 259 241 217 213 211 207 205 204 204 203 205 206 205 210 216 219 218 219 215 206 207 211 208 210 225 236 237 219 200 191 182 188 192 181 173 176 180 182 193 197 189 202 195 147 134 111 81 118 156 158 160 162 158 155 156
303 299 298 300 303 305 305 303 303 305 307 308 308 308 310 307 300 294 290 289 289 289 289 287 286 284 281 275 270 267 267 271 267 255 230 208 205 202 201 200 201 202 203 203 203 204 209 215 217 218 221 213 208 207 204 205 221 247 255 258 246 206 188 183 190 189 177 173 181 183 181 189 195 198 216 199 63 108 136 99 92 138 157 158 160 162 161 163
310 304 299 299 300 303 304 303 302 302 304 307 308 308 308 308 304 298 293 290 290 292 292 289 288 285 282 276 269 263 261 261 258 245 217 202 198 194 195 195 197 201 201 201 201 204 208 213 216 218 221 215 211 205 200 209 241 268 266 264 254 212 192 186 189 187 179 184 188 184 187 203 215 215 212 220 354 80 136 131 114 128 151 165 175 170 157 162
313 310 306 301 299 300 301 302 302 301 302 304 307 309 307 307 306 301 296 293 292 293 294 292 289 287 283 277 268 259 254 244 240 238 209 197 193 189 190 191 195 198 199 199 200 203 207 212 216 220 222 220 214 205 209 229 259 277 261 238 221 197 192 188 187 188 186 191 186 185 199 220 238 226 195 206 249 260 170 171 169 144 152 172 183 178 165 163
310 311 311 308 304 301 300 300 300 300 300 302 305 306 306 306 305 303 299 294 294 293 294 293 289 288 285 278 268 257 251 239 232 230 207 194 190 186 187 189 194 196 197 198 199 203 207 212 217 221 223 223 216 208 222 249 262 263 229 192 183 182 186 185 183 185 185 184 183 191 207 217 230 217 197 198 209 232 230 186 176 168 158 173 181 181 183 182
306 308 309 310 309 306 303 301 300 300 299 300 302 303 305 304 303 303 299 296 294 294 294 292 291 288 285 279 268 258 250 238 226 219 205 192 188 186 185 189 193 194 195 197 199 204 208 213 216 221 223 222 217 213 234 269 262 233 193 170 171 175 179 182 182 184 182 179 188 195 196 199 201 202 200 198 209 230 234 204 177 173 169 177 181 183 188 191
303 304 305 307 309 309 307 305 303 301 300 300 300 301 302 301 301 301 299 297 292 293 294 291 291 287 284 278 266 258 245 232 219 211 204 191 186 185 185 187 192 194 194 197 200 204 209 212 216 221 223 224 222 219 247 288 249 199 177 171 173 173 176 181 182 183 182 179 195 196 187 192 196 206 213 203 215 232 230 216 190 189 188 187 185 178 184 189
300 301 302 303 305 307 308 309 307 305 304 302 302 301 300 299 299 299 297 296 292 293 292 290 290 286 283 274 262 253 239 228 214 206 203 193 185 184 186 186 189 192 194 197 200 205 210 213 218 221 224 227 223 223 260 310 213 185 173 171 174 173 175 180 180 180 179 176 195 203 188 191 199 213 231 230 228 229 229 229 210 208 195 192 189 177 179 180
298 299 299 301 302 303 305 308 309 310 309 307 306 304 301 297 297 297 295 293 292 291 289 289 287 285 282 270 259 250 238 229 216 205 200 196 188 185 187 185 185 189 192 196 201 207 212 214 218 220 225 223 223 230 260 12 190 182 173 168 172 177 177 180 182 177 179 182 192 196 180 186 203 216 229 241 237 221 225 236 229 223 204 192 188 181 180 175
296 296 297 298 299 301 302 304 307 310 312 312 312 309 304 298 295 294 292 291 291 289 286 285 284 285 281 266 246 247 241 231 223 211 201 199 194 188 187 186 185 186 190 194 200 208 211 212 217 219 223 217 224 235 154 83 180 179 174 169 170 177 178 181 185 178 183 196 185 183 174 179 198 208 214 228 226 214 217 231 235 231 213 196 188 183 181 176
295 295 295 296 297 298 300 301 304 307 310 312 313 312 308 302 297 293 290 289 288 286 283 282 284 284 280 262 226 244 243 233 225 214 205 202 198 194 189 187 186 186 190 193 198 205 208 210 215 216 219 216 222 210 141 90 177 180 176 170 169 175 177 180 185 182 186 188 178 190 199 181 189 197 205 213 212 214 218 224 234 235 220 198 188 183 184 180
294 294 295 295 295 296 297 299 302 305 308 308 310 310 308 306 301 294 288 286 284 284 282 283 284 284 283 265 231 244 246 234 217 206 209 204 200 198 193 189 187 187 191 195 198 203 206 208 212 213 214 216 221 198 157 87 172 181 177 168 171 176 175 180 188 191 199 192 180 201 226 171 188 200 201 205 203 211 220 223 231 235 223 200 191 188 186 182
293 293 294 294 295 295 294 296 298 303 306 306 306 305 304 305 302 296 288 283 280 280 280 281 281 282 283 267 236 245 243 226 204 201 210 207 202 200 196 191 187 188 193 196 199 202 206 208 211 214 212 211 218 206 187 155 171 179 178 172 173 176 174 181 193 199 215 218 190 199 225 203 203 204 197 201 200 205 215 220 224 225 217 202 197 193 190 190
292 292 293 293 294 294 294 294 296 301 303 304 304 301 299 300 301 299 291 283 278 280 281 280 280 281 280 263 233 233 219 193 187 201 208 205 203 200 197 193 187 190 194 197 200 202 205 208 210 213 212 209 215 215 214 219 178 177 180 179 179 182 181 184 194 198 210 227 216 204 220 236 229 199 194 194 192 198 206 211 212 211 210 205 204 199 194 201
290 291 292 291 292 292 292 293 294 298 300 300 300 298 294 295 301 300 293 284 278 282 285 284 283 280 276 242 216 213 193 181 187 197 199 196 199 200 197 193 189 192 196 198 200 201 203 208 211 212 213 211 213 217 220 215 184 180 182 182 181 187 191 192 198 201 204 217 230 219 214 223 222 191 188 190 187 189 194 199 199 200 206 206 207 207 202 208
288 288 289 290 291 290 289 290 293 296 298 297 297 296 293 295 301 299 296 292 284 282 282 282 280 274 270 236 211 205 190 188 193 194 194 192 196 200 197 193 192 194 200 200 199 200 202 207 210 211 212 211 213 216 215 204 186 188 190 190 191 192 198 203 205 206 204 208 221 228 221 221 218 196 188 190 187 183 186 193 192 192 200 204 206 210 210 212
286 286 287 288 289 288 287 288 291 293 295 295 294 293 292 294 296 294 296 298 291 283 279 280 280 275 272 251 212 200 192 195 200 195 195 197 197 200 199 194 192 196 202 202 200 200 201 207 211 212 211 210 214 215 212 206 196 199 199 200 204 203 204 206 206 207 206 208 216 224 229 233 229 216 204 192 185 187 192 192 192 191 195 199 201 204 207 207
283 284 284 285 286 286 286 286 288 290 292 293 292 291 292 294 294 295 301 302 292 282 279 279 280 276 271 250 211 206 211 207 205 198 195 199 198 200 201 195 192 196 202 202 200 200 203 209 212 212 212 211 213 214 213 216 212 211 219 217 209 207 209 207 205 208 207 211 216 217 224 234 236 228 214 201 197 204 206 194 189 192 192 194 197 200 199 196
281 281 282 283 283 284 284 285 286 286 287 289 288 289 291 293 296 300 307 308 302 289 280 275 275 272 269 251 208 210 231 222 209 198 192 199 199 197 199 196 194 196 200 200 199 200 205 211 212 211 213 212 213 217 219 220 219 218 232 254 230 211 208 205 205 208 208 213 218 217 221 227 233 229 220 219 225 240 232 207 189 188 191 193 196 196 193 193
279 279 280 281 281 281 282 283 285 285 283 282 283 285 286 287 293 300 305 308 309 307 296 287 278 268 263 250 207 211 229 222 208 195 190 200 200 196 198 199 197 196 201 201 199 200 205 211 211 209 213 214 214 218 221 221 223 227 231 248 256 220 204 200 203 208 209 211 219 221 219 220 223 221 220 226 235 246 248 224 199 192 196 198 199 199 199 200
280 279 279 278 278 279 280 281 283 283 279 278 278 280 281 282 290 296 299 303 304 308 314 305 283 263 257 244 213 217 224 217 207 192 190 201 199 197 201 201 200 200 202 203 201 204 207 209 210 209 213 215 216 218 221 223 224 228 233 236 248 236 215 207 204 206 207 207 217 220 212 213 216 216 217 220 223 227 235 229 214 205 198 196 207 210 209 211
281 280 279 278 276 276 278 280 281 280 277 276 276 274 274 278 287 296 299 302 301 307 318 309 282 263 255 239 221 218 218 216 207 187 190 204 198 198 202 201 204 205 202 202 204 209 209 207 208 210 212 215 219 220 220 223 224 227 232 230 235 241 242 231 206 198 198 203 215 215 207 213 216 218 220 217 221 224 226 227 223 214 203 200 210 215 215 216
282 281 279 278 275 273 275 279 279 278 275 274 273 269 268 276 285 294 300 304 303 310 324 321 302 278 256 236 219 210 213 219 209 187 192 205 200 198 201 202 207 209 204 201 207 214 210 205 207 211 212 215 219 222 221 221 225 231 227 220 231 239 251 254 217 193 192 205 215 214 214 215 212 218 221 216 224 231 229 232 230 223 216 213 215 216 218 217
281 280 279 277 276 272 270 275 277 275 274 272 268 263 262 271 279 290 303 310 306 312 323 322 321 299 270 240 212 203 211 220 208 193 193 200 200 198 201 206 208 208 204 203 213 219 212 204 206 211 212 216 219 222 222 220 225 231 218 211 229 234 251 259 231 208 206 212 211 209 214 216 213 222 222 216 223 230 233 238 237 230 226 224 223 221 223 222
279 278 277 276 276 274 268 270 274 272 272 270 265 259 256 262 267 278 297 320 299 307 313 309 317 304 277 248 211 204 209 214 204 199 194 192 197 199 203 208 210 209 204 206 215 217 212 206 206 211 214 217 220 221 222 223 228 227 213 215 233 240 263 262 242 230 220 213 200 200 209 215 226 228 223 216 221 229 237 241 243 239 235 231 229 226 226 226
278 276 276 274 274 275 269 269 274 271 268 265 262 256 249 245 239 249 253 265 289 304 314 305 316 316 281 246 212 205 208 207 200 204 198 190 195 202 207 208 209 213 209 213 221 218 215 211 208 212 217 220 222 222 224 227 229 224 218 227 240 253 270 268 253 235 218 207 199 200 205 207 233 230 218 211 218 230 241 244 246 247 243 240 235 230 229 229
277 275 274 272 270 271 268 271 275 269 261 259 257 249 238 229 220 214 182 249 283 299 306 300 305 319 293 237 207 201 206 206 199 206 201 193 194 204 213 213 211 216 216 220 226 223 219 214 210 214 218 222 224 223 226 229 228 225 227 236 246 263 270 267 251 229 211 202 211 209 207 207 221 228 219 217 225 240 252 254 253 248 244 244 241 235 232 230
278 275 273 270 267 265 265 271 273 267 261 255 251 241 225 220 213 193 193 261 283 298 304 313 298 320 327 237 209 202 206 208 211 217 204 198 198 204 211 211 209 214 221 224 227 226 223 215 212 216 217 220 225 226 228 230 228 227 234 242 249 265 266 257 231 215 202 210 222 218 211 208 212 224 225 230 238 249 263 264 261 255 249 242 237 236 235 233
278 274 271 269 264 260 261 267 266 264 265 252 241 233 215 211 212 205 221 256 288 310 323 28 158 208 353 275 222 210 208 209 215 219 208 201 202 206 209 208 205 207 217 223 224 226 225 219 214 215 217 217 222 227 229 229 228 230 237 241 244 249 245 238 197 200 210 217 224 222 212 208 220 226 230 238 242 249 255 254 256 258 256 247 234 233 235 235
277 273 270 266 262 257 258 265 261 257 261 249 236 228 210 206 221 221 230 243 253 268 279 333 228 200 330 301 265 235 221 216 213 213 212 208 206 209 212 214 211 208 213 219 220 222 224 222 217 215 216 216 217 223 226 227 227 230 234 235 231 194 160 237 218 253 245 223 226 224 213 209 223 229 234 240 244 250 248 245 251 257 257 252 242 237 237 239
276 273 268 263 260 257 255 260 256 250 254 247 235 224 211 213 230 230 238 248 252 263 271 279 281 274 274 271 302 311 249 227 218 212 215 214 210 210 213 216 216 214 215 217 220 220 217 220 216 213 214 214 214 221 226 228 228 230 234 237 235 222 209 224 208 191 219 223 222 212 204 203 219 233 240 241 246 250 246 245 252 257 255 248 246 244 241 241
275 272 269 261 256 255 253 254 252 245 246 243 232 222 215 219 229 236 246 254 260 272 276 278 283 283 278 262 277 323 298 243 226 218 220 219 215 214 213 215 216 215 215 215 219 220 221 227 219 211 214 214 213 220 225 229 231 232 235 237 236 232 229 233 229 216 212 218 210 193 196 214 225 237 241 241 248 248 244 244 243 248 248 237 236 237 235 237
273 271 268 262 254 251 249 249 250 244 242 241 231 223 224 227 233 240 247 255 265 277 280 283 287 283 282 275 270 294 327 273 236 225 224 224 224 222 219 217 216 216 217 215 216 216 221 232 225 214 215 215 214 216 220 225 229 231 234 235 236 238 238 236 235 224 214 214 199 194 202 215 222 234 232 229 241 242 238 236 233 238 236 227 225 222 222 227
272 268 265 261 256 251 247 245 247 244 241 240 233 230 233 236 237 240 240 243 253 266 278 293 300 283 285 285 274 280 319 324 265 235 228 225 228 228 225 223 218 217 219 219 220 219 222 234 227 217 217 217 214 214 221 227 228 230 234 236 236 239 241 235 227 203 195 209 209 198 202 206 203 214 218 218 233 247 240 230 226 229 226 218 215 212 213 217
270 265 261 258 255 251 248 244 243 242 239 237 237 238 240 240 240 243 242 242 248 253 262 276 282 280 286 289 280 277 291 316 308 259 241 232 230 231 228 227 225 220 220 221 225 225 226 236 228 218 220 219 214 216 225 229 229 233 236 236 236 230 226 222 215 196 177 203 234 200 202 207 203 205 211 217 245 268 260 240 224 221 218 211 206 205 207 209
270 265 260 256 252 249 247 242 237 236 234 234 237 239 242 243 243 244 245 247 251 256 262 268 273 276 277 279 279 275 275 289 301 289 264 243 236 236 231 228 228 226 221 221 225 227 227 235 233 220 219 220 218 221 228 228 226 232 236 237 239 236 226 217 214 214 200 191 229 212 209 214 215 220 225 235 259 271 268 257 235 222 220 214 206 201 200 201
272 268 263 256 248 244 238 231 227 227 230 234 237 241 245 248 248 247 249 253 255 259 264 267 270 273 273 276 280 277 273 278 284 292 289 268 250 243 236 230 228 229 225 221 223 227 228 233 235 225 217 217 220 221 225 227 226 230 235 233 232 231 227 222 220 218 209 190 165 184 231 229 225 234 241 243 256 262 260 254 237 226 224 218 206 198 198 196
272 269 266 256 245 237 230 225 223 223 230 235 239 242 246 249 251 252 253 255 258 259 261 263 264 265 270 273 274 275 278 279 284 294 293 284 272 257 245 236 229 227 226 222 221 223 225 228 231 233 227 218 219 221 225 228 228 233 238 234 228 224 218 212 218 218 214 214 199 187 232 245 240 246 250 252 259 257 250 240 230 225 220 212 203 199 199 198
271 269 266 255 240 230 227 227 224 223 229 235 239 244 248 252 256 259 260 259 258 257 255 257 257 258 264 268 271 281 288 286 290 297 292 288 290 280 260 246 237 228 224 224 222 220 223 227 230 236 238 229 218 216 220 226 232 238 240 236 230 226 220 211 207 211 211 218 221 211 229 247 247 251 250 251 251 245 239 232 226 222 213 205 203 200 199 202
268 265 260 251 238 224 223 226 226 228 231 232 236 241 247 255 257 260 264 263 260 258 254 254 256 258 262 267 275 286 292 289 286 286 291 297 301 297 275 254 242 231 224 225 224 220 220 224 226 231 241 240 230 225 222 222 233 240 239 234 230 229 229 229 230 227 218 214 213 209 215 230 238 245 242 237 236 230 228 228 226 219 209 203 204 205 205 207
263 256 248 245 238 226 223 225 226 232 234 232 235 237 240 247 250 256 263 257 254 258 256 255 256 258 261 264 269 275 280 283 276 276 293 305 301 301 292 261 245 235 227 224 224 220 216 217 218 221 238 246 240 237 233 227 233 243 243 235 231 232 233 233 233 231 224 217 213 211 211 220 228 236 233 232 238 231 220 222 220 213 206 203 205 210 212 210
263 254 241 236 236 230 226 228 229 232 234 234 237 238 239 242 242 249 259 255 247 249 253 254 254 260 267 264 259 264 269 270 273 283 300 306 298 298 304 274 245 237 234 231 228 223 218 218 217 213 212 226 230 233 229 226 231 243 247 238 232 231 230 229 226 219 216 217 215 215 223 227 230 231 228 232 239 228 211 212 212 207 204 204 209 215 213 210
271 261 243 228 230 230 228 229 231 234 237 239 241 243 245 247 244 244 253 261 255 247 253 260 259 265 271 261 252 266 270 258 261 286 301 300 297 296 306 295 248 235 235 234 229 225 221 221 221 220 222 226 230 229 224 225 234 242 242 236 231 228 228 228 222 215 218 218 214 218 226 229 231 227 221 227 232 219 206 207 209 206 203 205 213 217 213 209
276 268 254 234 225 225 225 229 233 235 238 243 245 245 247 250 252 250 249 257 260 249 251 256 258 266 267 253 244 265 269 247 242 276 299 292 289 287 295 318 266 234 231 227 223 222 220 221 224 225 228 232 235 235 231 234 246 251 245 237 232 231 230 227 221 220 223 219 214 222 224 227 234 234 228 229 230 220 211 210 214 212 207 206 210 211 210 207
271 267 263 252 237 223 218 224 230 231 233 241 245 247 250 253 260 264 258 253 248 242 249 255 259 268 265 246 233 245 255 240 238 265 297 288 283 281 280 308 321 216 228 226 221 220 220 223 227 227 229 233 237 239 239 241 249 255 255 244 235 232 230 224 222 224 226 223 225 229 226 230 238 238 234 234 234 231 224 222 224 217 208 204 204 205 206 203
269 265 263 259 252 239 226 224 229 230 228 234 242 247 252 254 260 269 270 263 249 233 242 265 268 271 254 221 211 224 237 231 231 251 283 287 284 283 281 290 286 146 215 234 223 223 224 228 231 230 232 234 236 239 242 244 249 251 251 246 236 229 225 224 224 225 226 229 234 234 232 236 241 243 243 241 241 244 238 229 222 213 206 204 202 202 204 202
269 266 263 260 256 252 246 237 237 238 233 234 241 244 246 251 258 263 262 265 265 246 235 252 261 254 221 197 208 232 241 233 225 235 269 281 275 276 282 289 279 257 359 17 232 224 224 228 233 234 235 237 237 238 239 242 248 250 249 249 244 233 223 222 225 225 226 229 232 231 232 235 240 248 251 245 240 241 236 224 216 210 207 205 202 203 204 203
269 267 264 264 259 254 252 247 246 249 243 239 242 241 242 245 249 257 254 249 260 257 242 247 256 239 213 204 218 232 236 234 227 230 256 271 264 266 270 275 295 298 319 350 345 258 224 226 229 229 230 236 239 237 236 238 243 247 248 251 254 242 227 221 223 226 228 229 228 227 230 234 242 251 250 241 237 238 234 223 215 210 208 206 204 204 206 206
270 270 266 266 263 255 253 249 247 251 249 244 242 241 241 239 237 252 255 224 204 222 230 242 253 230 203 199 204 205 207 224 228 230 246 259 256 259 259 257 279 301 316 327 330 324 258 231 227 223 222 231 237 237 235 234 236 241 244 248 253 245 233 228 227 228 230 230 228 228 230 235 243 249 246 239 235 235 231 223 217 212 208 206 205 206 208 208
Height
3170 3169 3169 3168 3167 3166 3165 3164 3163 3162 3161 3160 3159 3157 3156 3155 3155 3154 3154 3154 3154 3154 3154 3154 3154 3154 3154 3154 3154 3154 3154 3154 3154 3155 3156 3158 3158 3158 3160 3163 3165 3167 3169 3171 3173 3174 3174 3175 3175 3176 3176 3177 3177 3178 3178 3178 3179 3179 3180 3180 3180 3180 3180 3180 3180 3180 3180 3180 3181 3182 3183 3184 3184 3185 3185 3185 3186 3186 3186 3186 3187 3187 3188 3189 3190 3189 3189 3189
3169 3168 3167 3167 3166 3165 3164 3163 3162 3161 3160 3159 3158 3156 3155 3154 3153 3153 3152 3152 3152 3152 3152 3152 3152 3152 3152 3152 3152 3151 3151 3151 3151 3152 3153 3155 3155 3156 3159 3161 3163 3165 3168 3170 3171 3173 3173 3174 3174 3175 3176 3176 3177 3178 3178 3178 3179 3179 3180 3179 3179 3179 3180 3180 3180 3180 3180 3180 3181 3182 3183 3184 3184 3184 3185 3185 3186 3186 3186 3187 3187 3187 3187 3188 3190 3190 3190 3191
3168 3167 3166 3165 3164 3164 3163 3162 3161 3160 3159 3158 3156 3155 3154 3153 3152 3151 3151 3150 3150 3150 3150 3150 3149 3149 3149 3149 3149 3149 3149 3148 3149 3150 3151 3152 3153 3155 3157 3159 3162 3164 3167 3169 3170 3171 3172 3172 3173 3174 3174 3175 3176 3177 3178 3178 3178 3179 3179 3179 3179 3179 3180 3180 3180 3180 3180 3180 3181 3183 3184 3184 3183 3184 3184 3185 3186 3186 3187 3187 3187 3186 3187 3188 3189 3190 3190 3191
3166 3165 3164 3164 3163 3162 3161 3161 3160 3159 3157 3156 3155 3154 3153 3151 3151 3150 3149 3149 3148 3148 3148 3147 3147 3147 3147 3146 3146 3146 3146 3146 3146 3147 3148 3149 3150 3152 3154 3157 3161 3163 3165 3167 3168 3169 3170 3171 3172 3172 3173 3174 3175 3176 3177 3177 3178 3178 3177 3177 3179 3180 3180 3180 3180 3180 3181 3180 3181 3182 3183 3183 3183 3184 3185 3186 3187 3187 3187 3188 3188 3187 3187 3188 3189 3190 3191 3191
3165 3164 3163 3162 3161 3161 3160 3159 3158 3157 3156 3155 3154 3153 3151 3150 3149 3149 3148 3147 3147 3146 3146 3145 3145 3145 3144 3144 3144 3144 3144 3144 3144 3145 3146 3147 3148 3150 3152 3155 3159 3162 3164 3165 3167 3168 3169 3170 3171 3171 3172 3173 3175 3175 3176 3177 3178 3177 3176 3176 3179 3180 3179 3179 3180 3180 3181 3181 3181 3182 3182 3183 3184 3185 3185 3186 3187 3188 3188 3188 3189 3189 3189 3189 3190 3191 3191 3192
3163 3163 3162 3161 3160 3159 3158 3157 3157 3156 3155 3154 3152 3151 3150 3149 3148 3147 3147 3146 3145 3145 3144 3143 3142 3142 3142 3142 3142 3142 3142 3143 3143 3142 3143 3144 3146 3148 3151 3154 3157 3159 3161 3164 3165 3166 3167 3168 3169 3170 3171 3172 3174 3175 3176 3177 3177 3176 3175 3174 3176 3179 3179 3179 3179 3180 3181 3181 3181 3182 3182 3183 3183 3185 3186 3187 3188 3189 3189 3189 3190 3190 3190 3191 3191 3192 3192 3192
3162 3161 3160 3159 3159 3158 3157 3156 3155 3154 3153 3152 3151 3150 3149 3148 3146 3146 3145 3144 3144 3143 3142 3141 3140 3140 3140 3139 3139 3139 3140 3141 3141 3141 3142 3143 3144 3146 3149 3151 3154 3157 3160 3162 3164 3165 3166 3167 3168 3169 3170 3172 3173 3174 3175 3176 3175 3173 3172 3172 3173 3176 3178 3178 3179 3180 3181 3182 3182 3182 3182 3182 3183 3184 3185 3187 3188 3189 3190 3190 3190 3190 3191 3191 3191 3192 3193 3193
3160 3159 3158 3158 3157 3156 3155 3154 3153 3153 3152 3151 3150 3149 3147 3146 3145 3144 3143 3143 3142 3142 3141 3140 3139 3138 3137 3137 3137 3137 3137 3138 3139 3140 3140 3141 3143 3145 3147 3150 3152 3155 3158 3161 3163 3164 3165 3166 3167 3169 3170 3171 3172 3173 3174 3174 3173 3171 3170 3170 3171 3174 3177 3178 3179 3180 3181 3182 3182 3182 3182 3182 3183 3184 3184 3186 3187 3188 3189 3190 3190 3190 3191 3191 3191 3192 3193 3193
3159 3158 3157 3156 3155 3154 3153 3153 3152 3151 3150 3149 3148 3147 3146 3145 3144 3143 3142 3141 3140 3140 3139 3138 3137 3136 3135 3135 3135 3135 3136 3137 3137 3138 3139 3140 3142 3143 3146 3149 3151 3154 3157 3160 3162 3163 3164 3165 3167 3168 3169 3170 3171 3173 3174 3173 3171 3170 3170 3170 3171 3174 3176 3177 3179 3180 3180 3181 3181 3182 3182 3183 3183 3184 3184 3185 3187 3188 3189 3190 3190 3190 3191 3191 3191 3192 3192 3193
3157 3156 3155 3154 3153 3152 3151 3151 3150 3149 3148 3147 3146 3145 3144 3143 3142 3141 3140 3139 3138 3138 3137 3136 3136 3134 3134 3133 3133 3133 3134 3134 3135 3137 3138 3139 3140 3142 3144 3147 3151 3154 3157 3159 3161 3162 3162 3164 3166 3167 3168 3169 3171 3172 3173 3172 3170 3170 3170 3171 3172 3173 3175 3176 3178 3179 3180 3180 3181 3181 3182 3183 3184 3184 3184 3185 3186 3188 3188 3189 3189 3190 3191 3191 3191 3192 3192 3193
3155 3154 3153 3152 3152 3151 3150 3149 3148 3147 3146 3146 3145 3144 3142 3141 3140 3139 3138 3137 3137 3136 3135 3135 3134 3133 3132 3131 3131 3132 3132 3132 3133 3134 3136 3137 3139 3140 3143 3145 3149 3153 3156 3158 3160 3160 3162 3164 3165 3166 3166 3168 3169 3170 3171 3170 3168 3169 3170 3172 3173 3174 3175 3176 3177 3178 3179 3180 3181 3182 3182 3183 3184 3184 3184 3184 3185 3186 3187 3188 3189 3190 3190 3190 3191 3191 3192 3193
3154 3153 3152 3151 3150 3149 3148 3147 3146 3145 3145 3144 3143 3142 3140 3139 3138 3137 3137 3135 3135 3134 3133 3133 3132 3131 3130 3129 3130 3131 3130 3130 3132 3133 3135 3136 3138 3138 3140 3143 3146 3150 3154 3157 3159 3159 3161 3163 3163 3164 3165 3166 3168 3169 3170 3168 3166 3169 3170 3171 3174 3175 3175 3177 3177 3177 3177 3179 3180 3181 3182 3183 3183 3183 3184 3184 3184 3185 3186 3187 3188 3189 3189 3190 3190 3191 3191 3192
3152 3151 3150 3149 3148 3147 3146 3145 3144 3144 3143 3142 3141 3140 3138 3137 3136 3135 3134 3133 3132 3132 3131 3130 3130 3130 3128 3128 3129 3128 3127 3129 3130 3132 3134 3135 3137 3138 3139 3142 3144 3146 3150 3152 3155 3156 3158 3160 3161 3162 3163 3165 3166 3167 3168 3167 3166 3170 3171 3170 3172 3175 3176 3177 3177 3177 3177 3178 3179 3179 3180 3181 3182 3182 3183 3183 3183 3184 3184 3185 3186 3188 3188 3189 3190 3190 3191 3192
3149 3149 3148 3147 3146 3145 3144 3143 3143 3142 3141 3140 3139 3138 3136 3135 3134 3133 3132 3131 3130 3129 3129 3128 3128 3128 3126 3126 3127 3126 3126 3128 3130 3131 3133 3134 3137 3138 3140 3142 3143 3145 3147 3149 3151 3153 3155 3158 3159 3160 3162 3164 3165 3166 3166 3167 3168 3170 3172 3170 3170 3172 3175 3176 3177 3177 3177 3178 3178 3179 3179 3179 3180 3181 3181 3181 3182 3182 3183 3184 3185 3186 3187 3188 3188 3189 3190 3191
3147 3146 3146 3145 3144 3143 3143 3142 3141 3140 3139 3138 3138 3136 3134 3133 3132 3131 3130 3129 3128 3127 3126 3126 3126 3125 3125 3125 3125 3124 3125 3127 3128 3130 3131 3133 3135 3137 3139 3141 3143 3145 3146 3147 3149 3151 3153 3155 3156 3158 3160 3162 3164 3165 3166 3167 3169 3170 3171 3171 3169 3170 3173 3176 3176 3176 3176 3176 3177 3178 3178 3177 3178 3179 3179 3180 3181 3181 3182 3182 3183 3185 3186 3186 3187 3188 3189 3190
3145 3144 3143 3142 3142 3141 3140 3140 3139 3138 3137 3136 3136 3134 3132 3131 3130 3129 3128 3127 3126 3125 3124 3124 3123 3123 3123 3123 3123 3123 3124 3126 3127 3128 3129 3131 3133 3135 3138 3140 3142 3143 3145 3146 3148 3150 3151 3153 3155 3156 3159 3161 3162 3163 3164 3167 3169 3170 3169 3169 3169 3170 3172 3174 3175 3175 3175 3175 3176 3176 3176 3176 3177 3177 3178 3178 3179 3180 3181 3181 3182 3184 3185 3185 3186 3187 3188 3189
3143 3142 3141 3140 3139 3139 3138 3137 3137 3136 3135 3134 3133 3132 3130 3128 3128 3127 3126 3124 3123 3122 3122 3121 3121 3121 3121 3122 3122 3121 3122 3123 3125 3126 3127 3129 3131 3133 3135 3137 3140 3141 3143 3145 3146 3147 3149 3151 3153 3154 3156 3159 3160 3161 3162 3164 3167 3168 3169 3168 3168 3168 3169 3171 3173 3173 3174 3174 3175 3175 3175 3175 3175 3175 3176 3176 3177 3178 3179 3180 3181 3182 3184 3184 3185 3186 3186 3187
3141 3140 3139 3138 3137 3136 3135 3134 3134 3134 3133 3132 3131 3130 3128 3126 3126 3124 3123 3122 3121 3120 3120 3120 3119 3119 3119 3119 3119 3119 3119 3120 3121 3122 3123 3125 3128 3130 3133 3136 3138 3139 3140 3142 3143 3145 3147 3149 3150 3152 3154 3156 3157 3158 3159 3161 3164 3166 3167 3167 3167 3167 3166 3167 3168 3168 3171 3173 3174 3174 3174 3174 3174 3174 3175 3175 3176 3177 3177 3178 3180 3181 3182 3183 3184 3184 3185 3186
3138 3138 3137 3136 3135 3134 3133 3132 3131 3131 3131 3130 3128 3127 3125 3124 3123 3121 3120 3119 3119 3119 3119 3118 3117 3117 3118 3118 3118 3118 3117 3118 3118 3119 3121 3123 3125 3128 3130 3133 3135 3136 3137 3139 3141 3143 3145 3146 3147 3147 3149 3152 3154 3156 3158 3160 3164 3166 3167 3166 3164 3165 3165 3164 3165 3166 3169 3171 3172 3172 3172 3173 3173 3173 3174 3175 3176 3176 3177 3178 3178 3180 3181 3181 3182 3183 3184 3184
3136 3135 3135 3134 3133 3132 3131 3130 3129 3129 3129 3128 3127 3125 3123 3122 3120 3118 3118 3118 3117 3116 3116 3116 3115 3114 3115 3117 3118 3117 3116 3116 3116 3117 3119 3120 3122 3125 3128 3129 3131 3132 3133 3136 3139 3141 3143 3143 3142 3143 3146 3151 3153 3156 3158 3160 3162 3164 3166 3165 3163 3162 3163 3164 3165 3166 3168 3169 3170 3171 3171 3171 3172 3172 3173 3174 3175 3175 3176 3176 3177 3178 3179 3180 3180 3181 3182 3183
3133 3132 3132 3132 3131 3130 3129 3128 3127 3127 3126 3126 3125 3123 3121 3118 3117 3115 3114 3115 3115 3115 3112 3112 3112 3110 3111 3114 3116 3116 3115 3114 3114 3115 3117 3118 3119 3121 3124 3126 3126 3127 3129 3134 3137 3139 3140 3139 3138 3142 3147 3151 3154 3155 3157 3158 3159 3161 3162 3164 3163 3161 3161 3163 3165 3166 3168 3169 3169 3171 3171 3170 3171 3172 3173 3173 3173 3174 3174 3175 3176 3176 3177 3178 3179 3180 3181 3183
3130 3129 3129 3129 3129 3128 3126 3125 3125 3124 3124 3123 3122 3121 3120 3117 3114 3112 3111 3109 3109 3111 3110 3109 3109 3107 3107 3110 3112 3113 3112 3111 3112 3114 3116 3116 3116 3117 3121 3123 3123 3124 3127 3131 3133 3135 3135 3134 3137 3143 3148 3150 3153 3154 3155 3156 3157 3158 3160 3161 3162 3161 3161 3164 3165 3166 3168 3168 3169 3170 3170 3170 3171 3171 3172 3172 3172 3173 3174 3175 3176 3176 3177 3177 3178 3179 3180 3182
3127 3127 3127 3127 3126 3125 3124 3123 3123 3122 3122 3121 3120 3119 3118 3116 3114 3112 3110 3107 3103 3104 3107 3106 3106 3103 3103 3106 3109 3109 3107 3108 3110 3112 3114 3114 3113 3115 3118 3120 3121 3123 3125 3127 3128 3130 3129 3131 3137 3143 3146 3148 3151 3152 3153 3154 3155 3156 3157 3159 3160 3162 3162 3162 3164 3166 3167 3168 3169 3169 3170 3171 3172 3172 3172 3172 3173 3174 3175 3176 3176 3177 3177 3177 3178 3178 3179 3180
3124 3124 3124 3124 3124 3123 3122 3121 3121 3120 3119 3118 3118 3118 3116 3115 3114 3112 3110 3108 3102 3099 3102 3103 3101 3099 3099 3103 3105 3104 3104 3106 3108 3110 3111 3112 3112 3114 3116 3118 3120 3121 3122 3124 3127 3127 3127 3131 3137 3141 3143 3146 3148 3150 3151 3152 3153 3154 3155 3157 3158 3161 3162 3162 3162 3165 3167 3168 3168 3170 3171 3171 3171 3171 3170 3172 3173 3174 3174 3175 3175 3175 3176 3177 3178 3178 3179 3180
3120 3121 3121 3121 3121 3121 3120 3119 3118 3118 3117 3116 3116 3116 3115 3113 3114 3112 3110 3108 3102 3097 3098 3098 3096 3094 3096 3098 3099 3100 3103 3104 3105 3108 3110 3110 3111 3112 3114 3118 3118 3118 3120 3123 3126 3126 3127 3132 3137 3139 3141 3143 3145 3147 3148 3150 3152 3153 3153 3155 3157 3159 3161 3162 3162 3164 3167 3167 3167 3169 3171 3169 3168 3169 3169 3171 3171 3171 3172 3173 3173 3174 3175 3176 3176 3177 3178 3179
3117 3117 3118 3118 3118 3118 3118 3117 3116 3115 3114 3115 3114 3113 3113 3113 3113 3112 3110 3107 3101 3096 3095 3094 3094 3093 3093 3095 3096 3099 3101 3100 3104 3107 3108 3109 3110 3111 3114 3116 3116 3117 3120 3123 3125 3123 3125 3131 3135 3136 3139 3141 3142 3144 3146 3149 3150 3151 3152 3154 3156 3158 3159 3160 3161 3162 3163 3162 3163 3165 3167 3166 3166 3165 3166 3169 3170 3169 3171 3170 3170 3172 3173 3173 3174 3175 3177 3177
3114 3114 3114 3115 3115 3115 3116 3115 3113 3112 3112 3113 3112 3112 3112 3112 3112 3111 3111 3109 3102 3095 3094 3094 3094 3092 3092 3094 3095 3097 3097 3098 3103 3105 3105 3107 3109 3110 3112 3113 3114 3116 3120 3123 3122 3120 3123 3129 3131 3133 3136 3137 3138 3140 3143 3147 3148 3148 3150 3153 3155 3156 3157 3158 3158 3158 3158 3159 3161 3163 3164 3164 3163 3161 3164 3168 3168 3169 3169 3167 3167 3168 3169 3170 3172 3173 3175 3176
3112 3111 3111 3112 3112 3112 3113 3113 3111 3110 3111 3110 3110 3110 3110 3111 3112 3111 3112 3111 3101 3094 3094 3093 3093 3092 3092 3093 3093 3095 3096 3098 3101 3102 3104 3107 3107 3109 3110 3112 3114 3116 3119 3119 3117 3117 3121 3126 3128 3130 3133 3133 3134 3138 3141 3145 3146 3147 3150 3153 3153 3154 3155 3156 3156 3156 3155 3157 3159 3160 3162 3163 3160 3159 3163 3166 3166 3166 3165 3164 3164 3164 3166 3167 3169 3171 3173 3174
3109 3108 3108 3109 3109 3109 3110 3110 3108 3108 3109 3108 3108 3108 3109 3110 3111 3110 3112 3110 3098 3094 3095 3093 3093 3093 3092 3092 3092 3095 3097 3098 3100 3102 3104 3105 3106 3108 3108 3111 3114 3116 3118 3117 3116 3118 3121 3124 3128 3130 3129 3130 3133 3137 3140 3142 3144 3147 3150 3151 3152 3153 3153 3155 3155 3154 3154 3153 3153 3154 3158 3159 3157 3156 3160 3162 3162 3162 3160 3160 3161 3161 3163 3165 3166 3168 3170 3172
3106 3105 3105 3106 3106 3106 3107 3106 3105 3105 3106 3106 3106 3107 3107 3109 3109 3109 3111 3106 3096 3094 3095 3093 3093 3093 3093 3093 3092 3094 3097 3098 3100 3102 3103 3104 3105 3108 3109 3112 3115 3116 3117 3116 3116 3119 3121 3124 3127 3127 3127 3130 3134 3137 3138 3140 3143 3146 3148 3148 3150 3150 3151 3152 3151 3151 3152 3151 3149 3150 3152 3153 3153 3152 3154 3156 3156 3156 3156 3157 3158 3159 3161 3162 3163 3165 3166 3168
3103 3102 3102 3103 3103 3103 3104 3103 3101 3102 3104 3104 3104 3105 3106 3107 3107 3107 3106 3100 3095 3095 3094 3092 3093 3093 3093 3094 3094 3094 3096 3097 3099 3100 3101 3102 3104 3106 3107 3110 3112 3113 3115 3114 3115 3117 3120 3122 3123 3123 3126 3130 3133 3135 3136 3139 3141 3143 3145 3146 3148 3148 3149 3149 3149 3149 3150 3149 3147 3148 3149 3151 3150 3148 3149 3150 3152 3154 3155 3155 3155 3155 3157 3159 3160 3161 3163 3165
3100 3100 3099 3099 3099 3100 3101 3100 3099 3100 3101 3102 3103 3103 3104 3105 3103 3100 3098 3097 3096 3094 3093 3092 3091 3092 3093 3093 3094 3095 3095 3096 3097 3098 3099 3100 3101 3102 3103 3104 3106 3109 3109 3110 3113 3115 3116 3118 3119 3121 3124 3127 3130 3131 3133 3136 3138 3140 3142 3144 3146 3147 3148 3148 3147 3148 3147 3145 3145 3146 3148 3148 3145 3144 3146 3148 3150 3152 3151 3152 3152 3152 3154 3157 3158 3159 3161 3163
3097 3096 3097 3096 3096 3097 3097 3096 3097 3098 3098 3100 3100 3100 3102 3101 3096 3093 3094 3096 3096 3093 3093 3092 3091 3092 3093 3092 3093 3095 3095 3095 3095 3096 3098 3098 3099 3100 3102 3103 3105 3105 3106 3108 3112 3112 3114 3116 3117 3119 3120 3122 3125 3126 3127 3130 3133 3135 3137 3140 3142 3144 3147 3147 3147 3147 3145 3143 3142 3144 3146 3146 3143 3142 3145 3147 3148 3148 3148 3150 3151 3151 3153 3156 3157 3158 3159 3161
3094 3093 3093 3093 3093 3093 3092 3092 3094 3095 3096 3097 3097 3098 3098 3095 3090 3091 3092 3093 3092 3092 3092 3092 3091 3091 3092 3092 3093 3094 3094 3094 3094 3095 3096 3097 3097 3097 3099 3101 3103 3104 3106 3108 3109 3109 3110 3110 3110 3113 3115 3117 3120 3121 3124 3128 3131 3132 3134 3137 3137 3138 3141 3143 3143 3143 3141 3140 3140 3142 3143 3142 3140 3139 3142 3144 3144 3145 3146 3148 3149 3150 3152 3155 3156 3157 3158 3159
3091 3090 3090 3090 3089 3088 3088 3089 3091 3092 3092 3093 3094 3094 3091 3089 3089 3090 3090 3090 3091 3091 3091 3091 3090 3089 3090 3091 3092 3093 3093 3092 3093 3094 3094 3094 3094 3094 3096 3098 3100 3103 3104 3105 3105 3107 3107 3105 3106 3111 3113 3115 3118 3120 3124 3127 3128 3129 3132 3133 3131 3133 3137 3139 3138 3137 3137 3137 3137 3138 3137 3135 3135 3137 3139 3142 3142 3142 3144 3145 3146 3147 3150 3153 3154 3155 3156 3157
3087 3087 3087 3086 3085 3084 3085 3086 3087 3088 3089 3089 3089 3087 3085 3086 3088 3089 3089 3089 3090 3090 3089 3089 3089 3088 3088 3089 3089 3091 3091 3090 3092 3093 3092 3092 3092 3092 3094 3095 3097 3099 3100 3102 3103 3104 3105 3103 3107 3111 3112 3113 3116 3119 3122 3123 3123 3126 3127 3126 3127 3132 3135 3135 3134 3135 3135 3135 3134 3134 3133 3133 3134 3135 3137 3138 3138 3139 3140 3141 3143 3144 3147 3150 3151 3152 3154 3155
3083 3083 3083 3082 3081 3081 3081 3083 3084 3085 3085 3085 3083 3081 3082 3084 3086 3086 3087 3087 3088 3088 3088 3087 3087 3088 3087 3087 3087 3089 3089 3089 3091 3091 3090 3091 3090 3090 3092 3093 3095 3096 3098 3100 3102 3102 3103 3103 3105 3108 3109 3111 3115 3118 3120 3120 3122 3123 3122 3123 3128 3131 3132 3131 3131 3132 3134 3134 3131 3130 3131 3131 3132 3132 3133 3134 3135 3136 3137 3138 3139 3141 3144 3146 3148 3150 3152 3153
3079 3080 3079 3078 3078 3077 3078 3079 3080 3081 3081 3080 3077 3078 3080 3082 3083 3084 3085 3086 3086 3087 3087 3087 3087 3087 3086 3086 3085 3086 3088 3088 3089 3090 3089 3089 3087 3087 3089 3091 3092 3094 3096 3099 3100 3101 3102 3102 3103 3105 3106 3109 3113 3116 3115 3115 3118 3119 3119 3123 3125 3125 3125 3126 3128 3129 3131 3132 3129 3127 3128 3128 3129 3129 3130 3131 3132 3133 3134 3135 3137 3138 3141 3143 3145 3148 3150 3151
3075 3076 3075 3074 3074 3074 3075 3076 3076 3076 3076 3074 3074 3075 3077 3078 3080 3081 3082 3084 3085 3085 3085 3086 3086 3086 3085 3085 3084 3084 3086 3087 3088 3088 3088 3087 3084 3083 3086 3088 3089 3091 3094 3096 3097 3098 3101 3101 3100 3102 3105 3107 3110 3109 3107 3108 3112 3115 3117 3119 3120 3120 3121 3122 3123 3124 3125 3128 3127 3126 3125 3124 3125 3127 3128 3128 3130 3131 3132 3133 3134 3136 3138 3140 3143 3146 3148 3149
3072 3072 3071 3071 3071 3070 3071 3072 3071 3072 3071 3070 3071 3073 3074 3076 3078 3078 3080 3082 3082 3083 3083 3084 3085 3084 3082 3083 3083 3083 3083 3084 3086 3086 3086 3085 3083 3082 3083 3085 3086 3088 3091 3093 3094 3096 3099 3098 3098 3099 3102 3103 3102 3101 3101 3103 3107 3110 3112 3113 3115 3116 3118 3118 3119 3118 3119 3121 3124 3124 3122 3121 3122 3125 3125 3126 3128 3130 3131 3131 3132 3134 3136 3139 3142 3144 3146 3147
3069 3068 3067 3067 3067 3067 3068 3068 3067 3067 3067 3067 3070 3072 3073 3074 3075 3076 3078 3080 3080 3081 3081 3081 3082 3081 3081 3081 3081 3081 3082 3081 3082 3084 3083 3082 3082 3080 3080 3082 3083 3085 3087 3088 3090 3092 3093 3094 3095 3096 3097 3096 3096 3098 3101 3104 3106 3108 3108 3109 3111 3113 3114 3115 3115 3114 3115 3116 3117 3119 3118 3117 3120 3122 3122 3124 3127 3128 3129 3130 3130 3132 3135 3137 3140 3142 3144 3145
3065 3065 3064 3064 3064 3064 3064 3064 3064 3064 3064 3066 3068 3070 3071 3072 3072 3073 3075 3076 3077 3077 3078 3078 3078 3078 3078 3078 3078 3080 3081 3079 3079 3080 3080 3079 3078 3076 3076 3078 3080 3081 3083 3083 3085 3088 3090 3092 3093 3093 3092 3093 3095 3098 3101 3103 3105 3106 3105 3106 3108 3109 3110 3110 3110 3111 3114 3114 3114 3115 3115 3114 3117 3120 3121 3123 3125 3126 3127 3128 3128 3131 3133 3135 3137 3139 3141 3143
3062 3062 3062 3060 3060 3061 3061 3061 3062 3062 3062 3064 3066 3067 3068 3069 3069 3069 3070 3072 3073 3073 3075 3075 3075 3076 3076 3076 3077 3078 3079 3077 3076 3077 3077 3075 3074 3072 3072 3074 3076 3077 3079 3079 3081 3085 3088 3088 3089 3090 3090 3090 3092 3095 3097 3099 3100 3100 3100 3102 3103 3104 3105 3107 3108 3110 3111 3111 3112 3113 3112 3112 3115 3118 3120 3122 3123 3124 3125 3126 3128 3130 3131 3133 3135 3137 3139 3140
3059 3059 3059 3057 3057 3059 3059 3059 3060 3060 3060 3062 3062 3063 3064 3065 3065 3066 3067 3069 3069 3070 3071 3071 3072 3074 3073 3074 3075 3076 3077 3076 3072 3073 3074 3072 3069 3069 3068 3068 3070 3072 3073 3074 3076 3080 3082 3083 3085 3087 3088 3088 3089 3089 3089 3091 3093 3093 3095 3097 3099 3101 3103 3105 3106 3107 3107 3107 3109 3110 3109 3109 3112 3115 3117 3119 3120 3122 3123 3124 3126 3128 3129 3131 3132 3134 3136 3138
3056 3056 3056 3055 3055 3056 3057 3057 3057 3057 3058 3058 3058 3059 3061 3061 3062 3063 3064 3065 3066 3066 3067 3067 3069 3071 3071 3072 3072 3072 3074 3074 3071 3070 3071 3070 3067 3067 3066 3064 3065 3067 3069 3071 3073 3075 3077 3078 3079 3082 3083 3083 3082 3081 3082 3086 3088 3089 3091 3093 3095 3097 3100 3101 3103 3103 3103 3104 3106 3106 3106 3107 3110 3112 3114 3116 3118 3119 3121 3123 3125 3126 3128 3129 3130 3132 3134 3136
3053 3052 3053 3053 3053 3053 3054 3053 3053 3054 3054 3054 3054 3056 3058 3059 3060 3061 3062 3062 3062 3064 3064 3064 3065 3067 3067 3068 3069 3069 3069 3070 3070 3069 3069 3068 3066 3065 3064 3062 3061 3063 3066 3069 3070 3072 3073 3073 3074 3076 3076 3076 3077 3078 3082 3085 3086 3087 3088 3089 3091 3093 3095 3097 3098 3098 3099 3102 3103 3102 3104 3106 3108 3110 3111 3113 3114 3116 3118 3120 3122 3124 3125 3126 3128 3129 3131 3133
3050 3049 3049 3051 3051 3050 3051 3051 3051 3051 3052 3051 3052 3053 3055 3056 3057 3058 3059 3059 3060 3060 3060 3061 3062 3063 3063 3064 3066 3067 3066 3066 3067 3068 3068 3068 3066 3064 3063 3061 3059 3059 3063 3067 3067 3069 3070 3070 3071 3072 3073 3073 3076 3078 3081 3083 3084 3085 3086 3087 3088 3090 3092 3092 3092 3094 3097 3099 3099 3100 3102 3103 3104 3107 3109 3110 3112 3113 3115 3117 3118 3120 3121 3123 3125 3128 3129 3131
3047 3046 3046 3048 3047 3047 3048 3048 3048 3049 3049 3049 3050 3051 3053 3054 3054 3055 3055 3056 3057 3058 3058 3058 3059 3059 3059 3061 3062 3063 3064 3064 3065 3067 3067 3067 3065 3064 3062 3060 3059 3059 3061 3064 3065 3067 3068 3067 3068 3070 3070 3071 3074 3076 3078 3080 3081 3082 3083 3084 3085 3087 3088 3088 3089 3091 3094 3094 3095 3098 3099 3100 3102 3104 3106 3107 3109 3111 3112 3114 3115 3116 3119 3121 3123 3125 3126 3128
3044 3044 3044 3044 3044 3044 3045 3045 3045 3045 3047 3047 3047 3049 3050 3050 3051 3053 3053 3053 3054 3056 3056 3055 3055 3055 3055 3057 3059 3059 3060 3062 3064 3065 3065 3065 3064 3063 3062 3060 3059 3059 3059 3060 3061 3064 3066 3065 3067 3068 3068 3069 3071 3073 3075 3077 3078 3079 3080 3082 3083 3083 3084 3085 3086 3088 3089 3090 3093 3095 3096 3097 3099 3101 3103 3105 3107 3108 3109 3111 3112 3114 3117 3119 3121 3122 3123 3125
3040 3041 3041 3041 3041 3042 3042 3042 3041 3042 3044 3045 3045 3046 3046 3047 3050 3051 3051 3051 3051 3052 3052 3052 3052 3053 3053 3054 3055 3055 3056 3059 3062 3062 3062 3062 3063 3062 3062 3060 3059 3058 3058 3058 3059 3061 3062 3062 3064 3067 3067 3067 3068 3070 3073 3074 3075 3076 3076 3078 3080 3081 3080 3081 3083 3084 3086 3088 3090 3093 3093 3094 3096 3099 3100 3102 3103 3105 3106 3108 3110 3113 3114 3116 3117 3119 3120 3122
3037 3038 3038 3038 3038 3039 3039 3039 3039 3039 3040 3042 3042 3042 3043 3046 3048 3047 3048 3050 3049 3048 3049 3050 3051 3051 3051 3052 3052 3052 3052 3055 3058 3059 3060 3060 3060 3061 3061 3059 3058 3058 3056 3057 3058 3059 3059 3059 3061 3063 3064 3063 3064 3067 3069 3071 3073 3072 3071 3073 3075 3076 3076 3077 3079 3081 3082 3084 3086 3088 3089 3091 3094 3096 3097 3099 3100 3101 3103 3105 3108 3110 3111 3113 3114 3116 3118 3121
3034 3034 3035 3034 3035 3036 3036 3036 3036 3036 3037 3038 3038 3038 3040 3044 3045 3045 3046 3048 3047 3046 3047 3048 3049 3049 3049 3050 3050 3049 3049 3051 3054 3057 3059 3058 3057 3058 3059 3058 3058 3057 3056 3056 3056 3057 3058 3058 3058 3059 3059 3059 3061 3064 3067 3069 3070 3067 3066 3069 3071 3071 3072 3074 3076 3077 3079 3081 3082 3083 3085 3089 3092 3093 3094 3095 3097 3098 3100 3102 3104 3106 3108 3110 3113 3115 3118 3120